Regional Weather Roundup
Issued by NWS Newport/Morehead, NC

Home | Current Version | Previous Version | Text Only | Print | Product List | Glossary On
Versions: 1 2 3 4 5 6 7 8 9 10 11 12 13 14 15 16 17 18 19 20 21 22 23 24 25 26 27 28 29 30 31 32 33 34 35 36 37 38 39 40 41 42 43 44 45 46 47 48 49 50
854
ASUS42 KMHX 190725
RWRMHX
WEATHER ROUNDUP FOR EASTERN NORTH CAROLINA
NATIONAL WEATHER SERVICE NEWPORT/MOREHEAD CITY NC
300 AM EDT SAT AUG 19 2017

NOTE: "FAIR" INDICATES FEW OR NO CLOUDS BELOW 12,000 FEET
WITH NO SIGNIFICANT WEATHER AND/OR OBSTRUCTIONS TO VISIBILITY

NCZ015>017-031-032-045>047-102-103-190800-
NORTH COAST

CITY           SKY/WX    TMP DP  RH WIND       PRES   REMARKS
EDENTON        CLOUDY    82  78  87 CALM      29.90S
ELIZABETH CITY CLOUDY    82  80  94 SW8       29.89R
KITTY HAWK     PTSUNNY   81  78  91 SW3       29.88F
MANTEO         MOCLDY    81  79  93 SW12      29.89F

$$

NCZ045>047-081-094-103-104-190800-
CENTRAL COAST

CITY           SKY/WX    TMP DP  RH WIND       PRES   REMARKS
FRISCO         CLEAR     83  81  94 SW12      29.92F

$$

NCZ095-097-098-100-101-190800-
SOUTHERN COAST

CITY           SKY/WX    TMP DP  RH WIND       PRES   REMARKS
BEAUFORT       CLEAR     83  82  97 SW15      29.93S
CEDAR ISLAND   NOT AVBL
JACKSONVILLE   CLEAR     81  80  97 SW7       29.91F
PINEY ISLAND   SUNNY    N/A N/A N/A SW12      29.92S
WILMINGTON     CLEAR     82  78  88 SW9       29.93S


$$

NCZ011>013-027>030-043-044-078>080-089-090>093-098-190800-
COASTAL PLAIN

CITY           SKY/WX    TMP DP  RH WIND       PRES   REMARKS
AHOSKIE          N/A     75  74  99 CALM      29.88F
CLINTON        MOCLDY    79  79 100 CALM      29.93S
ELIZABETHTOWN  NOT AVBL
GOLDSBORO      CLEAR     80  80 100 SW3       29.90S
GREENVILLE     CLEAR     81  79  94 W5        29.92F
HAVELOCK       CLEAR     83  79  88 SW12      29.93S
KENANSVILLE    CLEAR     79  77  94 CALM      29.92F
KINSTON        CLEAR     79  77  92 SW7       29.91F
NEW BERN       CLEAR     80  79  96 SW7       29.92S
RICHLANDS      PTCLDY    79  78  97 SW8       29.92F
ROCKY MOUNT    PTCLDY    79  76  90 CALM      29.91S
WASHINGTON     CLEAR     79  76  91 SW5       29.90F
WHITEVILLE     PTCLDY    79  76  91 S6        29.93S

$$

AMZ130-135-150-152-154-156-158-170-250-252-270-ANZ085-086-088-633-658-670-190800-
MARINE OBSERVATIONS

STATION/POSITION TIME  TEMP    WIND        PRES    WAVE   SWELL
                       AIR SEA DIR/SP/G            HT/PER HT/PER
                 (UTC) (F)     (DEG/KT/KT) (MB)    (FT/S) (FT/S)
CHESAPEAKE LIGHT NOT AVBL
64 E VA BEACH    0650   79 77  280/  8/ 10 1012.5    3/ 5   3/ 5
DUCK             0700   83 72  220/ 12/ 17 1011.6
2 E DUCK         0700      77                N/A     2/ 8
OREGON INLET     0700   83 84  210/ 17/ 21 1012.0
13E OREGON INLT  0648      80                N/A     3/ 5   2/ 9
HATTERAS CG      0700   82 83  230/ 11/ 15 1013.0
DIAMOND BUOY     0650   85 85  230/ 19/ 21 1013.1    6/ 6   2/24
CAPE LOOKOUT     0700   83     220/ 11/ 14 1013.2
BEAUFORT LAB     0700   83 82  220/  5/ 13 1012.8
30 SE NEW RVR IN 0708   81 83  230/ 16/ 21 1013.8
30 SE NEW RVR IN 0643      83                N/A     5/ 6
27 SE WRIGHTSVLE 0708   84 83  220/ 16/ 21 1013.7
5 SE WRIGHTSVLE  0708   84 83  220/ 14/ 19 1013.4
225 S CAPE HAT   0650   84 84  210/ 16/ 17 1016.2    4/ 5   2/ 8
41 SE CHARLESTON 0710   84 85  220/ 17/ 19 1014.0

$$




USA.gov is the U.S. government's official web portal to all federal, state and local government web resources and services.